Home > Weather > Randaberg > Past weeks

Flag for Norway Past Weather in Randaberg, Norway — Yesterday and Last 2 Weeks

Now
56 °F

Drizzle. Low clouds.


Feels Like: 56 °F
Forecast: 54 / 58 °F
Wind: 5 mph from Southwest

Location: Stavanger / Sola

Current Time: Jun 26, 2016 at 9:03:31 PM

Latest Report: Jun 26, 2016 at 8:00 PM


Visibility: 1 mi

Pressure: 29.74 "Hg

Humidity: 96%

Dew Point: 55 °F

Location of RandabergLocation

Past Weather in Randaberg — Graph

°F

Randaberg Temperature Yesterday

Maximum temperature yesterday: 64 °F (at 4:00 PM)
Minimum temperature yesterday: 56 °F (at 5:00 AM)
Average temperature yesterday: 59 °F

High & Low Weather Summary for the Past Weeks

 TemperatureHumidityPressure
High69 °F (Jun 23, 2:00 PM)98% (Jun 21, 2:00 AM)30.14 "Hg (Jun 21, 2:00 AM)
Low46 °F (Jun 20, 2:00 AM)39% (Jun 13, 10:00 AM)29.54 "Hg (Jun 15, 6:00 AM)
Average58 °F80%29.84 "Hg
* Reported Jun 11 7:00 PM — Jun 26 7:00 PM, Randaberg, Weather by CustomWeather, © 2016

Note: Actual official high and low records may vary slightly from our data, if they occured in-between our weather recording intervals... More about our weather records

Advertising

Randaberg Weather History for the Previous 24 Hours

Scroll right to see more
 ConditionsComfort  
Time TempWeatherWind HumidityBarometerVisibility
7:00 PM
Sun, Jun 26
57 °FRain showers. Overcast.5 mph96%29.72 "Hg2 mi
6:00 PM58 °FRain showers. Dense fog.5 mph97%29.72 "Hg1 mi
5:00 PM58 °FDrizzle. Fog.3 mph96%29.70 "Hg2 mi
4:00 PM60 °FRain showers. Low clouds.5 mph93%29.70 "Hg5 mi
3:00 PM63 °FRain showers. Passing clouds.3 mph91%29.69 "Hg17 mi
2:00 PM61 °FPartly sunny.2 mph92%29.69 "Hg19 mi
1:00 PM60 °FOvercast.3 mph97%29.70 "Hg4 mi
12:00 PM59 °FDrizzle. Fog.5 mph96%29.72 "Hg2 mi
11:00 AM58 °FLight rain. Fog.3 mph97%29.72 "Hg4 mi
10:00 AM57 °FLight rain. Fog.5 mph97%29.73 "Hg3 mi
9:00 AM57 °FRain. Fog.6 mph97%29.75 "Hg2 mi
8:00 AM57 °FRain. Fog.5 mph97%29.76 "Hg3 mi
7:00 AM57 °FRain showers. Scattered clouds.6 mph96%29.78 "Hg4 mi
6:00 AM57 °FRain showers. Light fog.3 mph96%29.80 "Hg5 mi
5:00 AM57 °FRain showers. Low clouds.3 mph96%29.82 "Hg4 mi
4:00 AM56 °FLight rain. Light fog.3 mph96%29.87 "Hg5 mi
3:00 AM56 °FLow clouds.5 mph95%29.89 "Hg6 mi
2:00 AM56 °FLow clouds.6 mph95%29.90 "Hg6 mi
1:00 AM56 °FLow clouds.6 mph93%29.93 "Hg9 mi
12:00 AM56 °FOvercast.5 mph92%29.96 "Hg11 mi
11:00 PM
Sat, Jun 25
57 °FClear.5 mph91%29.99 "Hg15 mi
10:00 PM58 °FPassing clouds.3 mph89%30.00 "Hg14 mi
9:00 PM59 °FSunny.5 mph87%30.01 "Hg28 mi
Weather by CustomWeather, © 2016

See weather overviewHow to use our weather pages